Location: Drocourt
(49.0571°N, 1.7669°E)
Time: 13:06:35
(UTC+00:00)

SR - Pass Details

Date: 21 April 2024
Orbit: 579 x 859 km, 66.7° (Epoch: 28 May)

Event Time Altitude Azimuth Distance (km) Brightness Sun altitude
Rises 10:54:45 0° 315° (NW) 2,962 ? 51.2°
Reaches altitude 10° 10:57:28 10° 300° (WNW) 2,003 ? 51.4°
Maximum altitude 11:00:56 22° 250° (WSW) 1,322 ? 51.6°
Drops below altitude 10° 11:04:16 10° 198° (SSW) 1,913 ? 51.8°
Sets 11:06:49 0° 183° (S) 2,791 ? 51.9°
